QUICK3

Satellite information

Favourite Embed

Satellite Type and Status

PAYLOADIN ORBIT

Key statistics

Satellite QUICK3 at a glance.

Uptime

174

Days in orbit

Revolutions

≈ 15.2

Per day

Orbit

SSO

Sun Synchronous Orbit

Inclination

97.5

Latest

Satellite identification and parameters

Extended collection of information and parameters for QUICK3.

Object identification

Identified? True

Debris? False

Object name: QUICK3

International designator: 2025-135AG

Object number (NORAD): 64558

Object ID (CCSDS): 64558

Country: LITHUANIA (LTU)

Current information (Y/N): Y

RCS size: MEDIUM

Orbital parameters

Period: 94.642 minutes

Inclination: 97.4612 deg

SMA: 6879.377 km

Apoapsis: 505.809 km

Periapsis: 496.676 km

RAAN: 98.406 deg

Eccentricy: 0.00066383

Argument of periapsis: 96.3487 deg

Mean anomaly: 263.8505 deg

Mean motion: 15.21524885 rev/day

Mean motion (dot): 0.00021023 rev/day2

B* drag term: 0.00093433839 1/REarth

Two-line elements (TLE)

Creation date: Dec. 12, 2025, 10:14 a.m.

Reference frame: TEME

Reference center: EARTH

Epoch: Dec. 12, 2025, 6:11 a.m. UTC

TLE line 0: 0 QUICK3

TLE line 1: 1 64558U 25135AG 25346.25810405 .00021023 00000-0 93434-3 0 9993

TLE line 2: 2 64558 97.4612 98.4060 0006638 96.3487 263.8505 15.21524885 26374

Live tracking on map

Real-time ground track for satellite QUICK3.

In-orbit conjunctions

There are no conjunctions computed for QUICK3, at the moment. Check back to stay up to date, as we update our databases every day.

Go to all conjunctions

Associated space launch

Dedicated rideshare flight to a sun-synchronous orbit with dozens of small microsatellites and nanosatellites for commercial and government customers.

QUICK3 was lifted into orbit during the mission ‘Falcon 9 Block 5 | Transporter 14 (Dedicated SSO Rideshare)’, on board a Falcon 9 space rocket.

The launch took place on June 23, 2025, 9:25 p.m. from Space Launch Complex 4E.

For more information about the launch, click the button.

Launch to space Falcon 9 Block 5 | Transporter 14 (Dedicated SSO Rideshare)
Falcon 9 Block 5 | Transporter 14 (Dedicated SSO Rideshare)

Agency: SpaceX

Status: Launch Successful

Launch date: June 23, 2025, 9:25 p.m. UTC

Rocket: Falcon 9

Launch pad: Space Launch Complex 4E

Location: Vandenberg SFB, CA, USA

...

Latest news about this satellite

News about space launch
The Exploration Company still studying Mission Possible reentry

The Exploration Company is still studying what happened in the final phases of a test flight three months ago that resulted in the loss of the spacecraft. The post The Exploration Company still studying Mission Possible reentry appeared first on SpaceNew...

News about space launch
A European spacecraft company flies its vehicle, then loses it after reentry

"This partial success reflects both ambition and the inherent risks of innovation."

News about space launch
The Exploration Company claims partial success of Mission Possible reentry spacecraft

The Exploration Company said it achieved “partial success” on a test flight of a reentry capsule but lost the spacecraft before it splashed down. The post The Exploration Company claims partial success of Mission Possible reentry spacecraft appeared firs...


Newsletter sign-up

Weekly statistics, charts and insights to help you stay on top of the space industry.